CAPE
0 0 0 0 0 0 0 0 2 6 0 0 0 0 0 0 0 0 0 0 0 0 0 0 0 0 0 0 0 0 3 11 11 1 0 4 23 14
0 0 0 0 0 0 0 0 0 1 1 0 0 0 0 0 0 0 0 0 0 0 0 27 17 0 0 10 1 0 3 15 28 19 2 0 7 37
0 0 0 0 0 0 0 0 0 0 0 0 0 0 0 0 0 0 0 0 0 0 0 0 9 37 0 0 5 16 4 5 28 38 27 2 7 23
0 0 0 0 0 0 0 0 0 0 1 4 0 0 0 0 0 0 0 0 0 0 11 41 65 52 43 47 51 51 36 3 7 16 24 19 17 21
0 0 0 0 0 0 0 0 0 0 0 1 0 0 0 0 0 0 0 0 0 12 33 49 83 14 42 69 80 81 78 63 61 71 49 30 17 18
0 0 0 0 0 0 0 0 1 3 1 2 0 0 5 0 0 1 0 0 0 0 8 20 54 44 27 8 36 22 78 40 17 57 77 45 32 29
0 0 0 0 19 4 4 0 1 8 1 12 26 21 2 0 2 5 14 0 0 0 0 0 0 0 0 6 0 37 72 65 20 15 56 61 47 23
0 0 0 0 0 8 17 25 26 7 7 28 6 26 9 8 0 6 9 2 0 0 0 0 0 0 0 0 31 97 78 80 60 0 5 9 52 44
0 0 0 0 4 0 1 13 15 24 36 19 19 14 41 45 9 0 0 5 0 0 0 0 0 0 0 0 73 141 102 93 55 66 21 23 32 45
0 0 0 0 0 4 4 0 0 0 0 1 10 12 21 4 1 4 11 13 0 0 0 2 0 0 0 0 4 73 156 70 39 67 76 85 54 49
0 0 0 0 2 32 15 5 0 0 1 33 47 61 71 103 93 9 1 22 4 0 0 0 0 0 0 0 0 9 4 2 19 42 44 75 93 95
0 6 28 30 25 30 38 2 1 0 0 0 0 0 1 0 27 12 14 20 8 7 0 0 0 0 0 0 0 0 0 0 0 0 0 25 34 12
1 0 0 20 28 26 41 14 18 14 19 7 0 0 0 0 0 0 0 19 17 1 0 2 0 0 0 0 0 0 0 0 0 0 0 0 12 29
4 0 0 17 42 48 29 30 26 26 8 19 0 0 0 0 0 0 0 1 3 9 0 6 0 1 0 0 0 0 0 0 0 0 0 0 1 19
22 24 48 36 27 13 19 36 33 4 1 7 0 0 0 0 0 0 0 0 0 0 0 0 0 0 0 0 0 0 0 0 0 0 0 0 0 0
11 0 3 6 4 5 1 0 1 5 4 0 0 1 0 0 0 0 0 0 0 0 0 0 0 0 0 0 0 0 0 0 0 0 0 0 0 0
20 0 0 0 0 0 0 0 0 0 10 0 0 0 0 0 0 0 0 0 0 0 0 0 0 0 0 0 0 0 0 0 0 0 0 0 0 0
0 0 0 0 1 0 1 1 0 1 0 8 16 5 2 0 0 0 0 0 0 1 0 1 5 3 0 0 0 0 0 0 0 0 0 0 0 0
0 0 1 1 1 0 2 2 2 0 0 0 4 13 3 0 3 3 0 1 0 1 0 0 2 4 0 0 0 0 0 0 0 0 0 0 1 0
0 3 6 4 4 4 1 0 0 0 0 0 0 0 2 8 0 0 0 1 7 0 0 0 0 0 0 0 0 0 0 0 0 0 0 0 0 0
4 3 3 4 5 5 4 3 0 0 2 0 0 0 0 1 4 0 0 14 14 0 0 0 0 0 0 0 0 0 0 0 0 0 0 0 0 0
7 5 3 1 2 0 0 2 1 2 0 0 0 0 0 0 8 0 0 0 0 0 0 0 0 0 0 0 0 0 0 0 0 0 0 0 0 4
3 3 2 1 1 2 0 0 0 0 1 0 1 0 0 0 2 9 0 0 0 0 0 0 1 0 0 0 0 0 0 0 0 0 0 0 0 1
CIN
-0 -0 -0 -0 -0 -0 -0 -0 -6 -3 -0 -0 -0 -0 -0 -0 -0 -0 -0 -0 -0 -0 -0 -0 -0 -0 -0 -0 -0 -0 -0 -0 -0 -0 -0 -8 -3 -4
-0 -0 -0 -0 -0 -0 -0 -0 -0 -5 -2 -0 -0 -0 -0 -0 -0 -0 -0 -0 -0 -0 -0 -0 -0 -0 -0 -0 -0 -0 -0 -0 -0 -0 -0 -0 -14 -1
-0 -0 -0 -0 -0 -0 -0 -0 -0 -0 -0 -0 -0 -0 -0 -0 -0 -0 -0 -0 -0 -0 -0 -0 -0 -0 -0 -0 -0 -0 -0 -0 -0 -0 -0 -0 -0 -0
-0 -0 -0 -0 -0 -0 -0 -0 -0 -0 -4 -5 -0 -0 -0 -0 -0 -0 -0 -0 -0 -0 -1 -0 -0 -0 -0 -0 -0 -0 -0 -0 -0 -0 -0 -0 -0 -0
-0 -0 -0 -0 -0 -0 -0 -0 -0 -0 -1 -6 -0 -0 -0 -0 -0 -0 -0 -0 -0 -10 -1 -0 -0 -0 -0 -0 -0 -0 -0 -0 -0 -0 -0 -0 -1 -0
-0 -0 -0 -0 -0 -0 -0 -0 -2 -5 -9 -10 -0 -0 -4 -0 -0 -27 -0 -0 -0 -0 -2 -6 -1 -1 -0 -1 -1 -7 -9 -8 -4 -0 -0 -0 -3 -0
-0 -0 -0 -0 -0 -0 -0 -0 -4 -3 -10 -2 -1 -1 -2 -0 -9 -17 -14 -0 -0 -0 -0 -0 -0 -0 -0 -2 -0 -12 -6 -4 -2 -0 -0 -0 -2 -5
-0 -0 -0 -0 -0 -0 -0 -0 -1 -4 -4 -0 -9 -0 -1 -2 -0 -3 -5 -3 -0 -0 -0 -0 -0 -0 -0 -0 -16 -3 -5 -1 -1 -4 -8 -5 -0 -3
-0 -0 -0 -0 -0 -0 -0 -0 -3 -0 -0 -3 -3 -2 -0 -0 -1 -0 -0 -13 -0 -0 -0 -0 -0 -0 -0 -0 -3 -3 -3 -3 -4 -1 -9 -2 -0 -0
-0 -0 -0 -0 -0 -2 -5 -6 -0 -0 -0 -4 -2 -2 -1 -4 -0 -0 -8 -18 -0 -0 -0 -3 -0 -0 -0 -0 -2 -4 -2 -2 -4 -0 -0 -0 -1 -0
-0 -0 -0 -0 -1 -0 -3 -4 -0 -0 -8 -0 -0 -0 -0 -0 -0 -0 -0 -3 -2 -0 -0 -0 -0 -0 -0 -0 -0 -2 -39 -55 -16 -1 -2 -1 -0 -0
-0 -1 -0 -0 -0 -0 -0 -16 -8 -0 -0 -0 -0 -0 -4 -0 -1 -5 -2 -0 -3 -3 -0 -0 -0 -0 -2 -0 -0 -0 -0 -0 -0 -0 -0 -0 -2 -1
-0 -0 -0 -0 -0 -0 -0 -0 -0 -1 -0 -5 -0 -0 -0 -0 -0 -0 -0 -12 -18 -14 -0 -25 -0 -0 -0 -0 -0 -0 -0 -0 -0 -0 -0 -0 -7 -5
-0 -1 -0 -0 -0 -0 -0 -0 -0 -0 -1 -0 -0 -2 -0 -0 -0 -0 -0 -35 -16 -29 -0 -34 -4 -5 -8 -0 -0 -0 -0 -0 -0 -0 -0 -0 -16 -17
-0 -0 -0 -0 -0 -0 -0 -0 -0 -2 -2 -1 -0 -0 -0 -0 -0 -0 -0 -0 -0 -0 -0 -7 -0 -0 -0 -0 -0 -0 -0 -0 -0 -0 -0 -0 -0 -0
-0 -0 -0 -1 -0 -0 -0 -0 -2 -1 -3 -0 -2 -1 -0 -0 -0 -0 -0 -0 -0 -0 -0 -0 -0 -0 -0 -0 -0 -0 -0 -0 -0 -0 -0 -0 -0 -0
-1 -0 -0 -0 -0 -0 -0 -0 -0 -1 -0 -1 -0 -0 -0 -0 -0 -0 -0 -0 -0 -0 -0 -0 -0 -0 -0 -0 -0 -0 -0 -0 -0 -0 -0 -0 -0 -0
-0 -0 -0 -0 -1 -1 -1 -1 -0 -0 -0 -1 -0 -0 -0 -0 -0 -0 -0 -0 -3 -4 -1 -5 -8 -5 -0 -0 -0 -0 -0 -0 -0 -0 -0 -0 -0 -0
-0 -0 -1 -1 -1 -1 -0 -0 -1 -0 -0 -0 -1 -0 -1 -0 -0 -2 -3 -11 -0 -25 -0 -0 -20 -3 -1 -0 -0 -1 -0 -0 -0 -0 -0 -0 -2 -1
-1 -1 -0 -0 -1 -1 -1 -1 -1 -0 -0 -0 -0 -0 -1 -0 -0 -0 -0 -4 -1 -4 -0 -0 -0 -0 -0 -0 -0 -0 -0 -0 -0 -0 -0 -3 -0 -0
-0 -0 -0 -0 -0 -0 -1 -1 -1 -0 -0 -0 -0 -0 -0 -0 -0 -0 -0 -0 -0 -0 -0 -0 -0 -0 -0 -0 -0 -0 -0 -0 -0 -0 -0 -0 -0 -0
-0 -0 -1 -1 -1 -1 -0 -1 -1 -0 -0 -0 -0 -0 -0 -0 -0 -0 -0 -0 -0 -0 -0 -0 -0 -0 -0 -0 -0 -0 -0 -0 -0 -0 -14 -0 -5 -0
-0 -0 -0 -0 -0 -0 -0 -0 -1 -1 -0 -0 -1 -1 -0 -0 -0 -0 -0 -0 -0 -0 -0 -0 -0 -0 -0 -0 -0 -0 -0 -0 -0 -0 -0 -7 -0 -0
Wind_Speed
6 6 6 7 5 5 5 6 9 14 13 8 8 6 5 4 6 7 9 14 19 20 22 27 26 24 25 26 23 22 22 21 19 17 17 15 13 11
6 6 5 5 7 6 6 7 8 10 16 10 9 7 6 8 7 8 8 13 16 20 23 21 23 26 24 24 22 23 22 21 21 19 17 17 15 14
6 8 9 7 7 7 6 6 8 8 12 15 11 10 4 6 7 6 7 7 8 18 22 23 22 25 26 24 24 22 23 23 22 20 19 17 16 14
9 9 11 9 10 9 7 9 9 9 9 16 16 12 7 7 6 6 7 10 9 16 22 23 22 25 27 25 23 22 21 23 21 20 20 17 15 14
8 8 11 11 12 10 10 10 10 10 10 10 14 12 8 4 6 6 8 7 7 15 21 21 21 20 21 22 19 18 18 19 19 18 16 16 16 15
10 11 12 12 13 13 12 12 11 10 10 10 12 13 10 8 5 4 5 4 8 9 13 15 17 17 22 22 19 18 16 20 20 19 18 15 14 13
11 11 12 14 22 21 13 13 13 11 10 10 11 11 11 10 9 6 7 7 6 5 5 7 6 4 5 11 11 13 12 10 12 14 17 19 14 13
12 12 12 17 17 24 25 27 22 14 14 11 10 12 14 13 10 7 6 9 9 5 6 8 3 5 5 4 14 15 11 11 11 11 15 16 15 12
12 13 13 11 17 14 20 25 22 24 24 16 15 14 14 13 13 11 11 9 11 8 3 9 4 6 5 6 14 12 12 14 14 10 11 14 15 12
11 12 13 14 13 17 16 15 13 11 12 11 13 14 12 11 12 11 10 7 7 6 3 9 7 6 5 5 12 12 14 15 15 14 14 14 14 14
12 13 14 16 20 26 18 16 16 13 15 23 24 25 25 24 23 12 10 8 10 9 4 7 8 5 4 4 4 7 6 9 14 15 13 11 12 13
13 12 19 19 27 28 18 14 15 13 12 12 10 13 16 13 21 13 9 11 9 10 7 7 7 3 3 3 2 1 2 7 11 13 15 13 9 4
11 11 10 24 28 28 29 17 16 17 18 14 11 8 8 9 8 7 8 9 6 7 8 5 3 2 2 2 2 1 1 2 3 6 13 14 11 9
13 11 13 27 30 30 23 26 28 26 9 9 8 8 8 8 8 8 9 8 7 9 7 8 2 3 3 2 2 2 2 3 3 3 3 10 12 12
12 19 29 27 27 20 23 25 25 10 10 9 8 8 7 8 8 6 7 8 6 6 6 5 4 4 3 4 3 3 2 3 3 2 3 3 4 6
15 10 16 20 21 18 14 12 8 9 10 8 7 7 4 4 6 6 7 4 3 4 5 4 5 6 5 5 3 3 3 2 2 2 4 4 4 4
16 7 8 9 8 9 9 9 8 8 9 9 7 7 6 6 6 5 5 2 4 2 4 3 5 5 5 4 3 3 4 4 4 5 4 3 3 4
8 8 9 9 10 10 10 9 9 11 9 9 8 7 7 5 6 4 3 3 5 5 5 4 2 1 2 4 12 7 4 4 3 5 3 4 9 4
7 8 9 9 10 10 10 10 10 9 10 8 9 8 6 5 8 4 3 4 4 5 5 3 5 5 4 7 3 14 7 4 3 2 4 4 7 8
8 9 9 10 10 10 10 9 10 9 8 8 7 8 8 7 5 5 5 6 6 6 5 3 5 6 8 9 4 4 11 4 3 4 5 3 5 12
8 9 9 9 10 10 10 10 11 10 11 9 7 8 7 7 8 6 6 12 11 6 7 7 10 17 5 2 4 6 3 11 9 6 3 3 3 4
9 10 9 9 10 10 9 10 10 12 9 8 8 7 7 7 8 6 7 7 5 5 6 4 3 4 5 7 9 5 3 3 9 16 19 15 4 4
9 9 9 10 10 11 8 10 10 12 10 9 8 8 7 7 7 7 6 5 4 4 4 4 3 4 7 5 8 5 5 6 3 5 5 12 14 20
Wind_Direction
269 273 273 277 276 280 280 287 290 298 290 285 284 256 261 273 276 284 295 293 299 303 303 307 305 304 304 302 296 298 296 291 288 291 291 285 291 286
276 264 269 281 280 275 278 284 282 286 291 287 281 270 253 271 263 279 275 287 297 294 292 292 298 300 297 297 300 295 291 290 283 280 283 286 275 276
284 282 278 272 279 279 274 274 278 276 281 291 283 278 255 251 268 261 272 272 285 286 290 294 296 294 295 292 292 287 289 288 284 279 275 278 275 263
292 293 289 290 287 282 278 278 274 277 278 284 290 288 244 244 240 250 270 276 276 279 287 288 289 286 282 290 289 284 283 280 277 273 269 273 276 266
293 303 304 304 297 291 282 280 279 280 282 283 288 291 282 257 263 260 258 259 262 275 280 285 285 305 304 303 299 296 286 281 281 276 257 251 255 255
293 291 291 289 287 288 283 282 283 281 281 279 278 285 288 279 238 238 264 259 275 274 275 278 287 292 289 297 301 296 286 275 274 273 266 243 235 238
292 290 288 283 288 290 291 288 283 278 279 277 279 279 279 280 264 259 264 272 261 255 271 279 270 266 281 296 294 301 320 319 325 320 290 260 227 225
295 294 291 290 284 285 289 292 291 291 284 287 278 277 278 271 263 257 264 274 274 250 253 272 241 276 270 268 277 287 305 318 292 301 313 312 260 223
292 295 296 293 298 288 284 285 286 284 282 286 284 279 277 273 270 269 261 258 264 272 231 271 248 266 253 275 281 290 312 308 297 276 272 286 282 264
287 288 290 293 287 290 288 283 276 270 268 266 271 275 276 260 259 264 258 259 269 272 227 267 271 259 268 261 282 305 305 308 298 293 286 269 264 257
301 299 292 291 288 292 291 289 284 281 277 278 282 282 279 271 267 269 266 264 271 272 239 247 264 252 239 251 264 304 344 354 353 328 307 299 273 271
310 306 306 302 305 305 304 297 291 285 276 275 274 271 274 272 278 270 256 258 254 272 244 234 253 209 294 259 196 258 3 349 347 336 337 329 344 311
310 307 300 304 306 306 304 297 291 287 288 290 278 267 264 259 262 257 261 251 243 246 255 237 238 233 195 239 288 296 351 312 323 330 331 328 316 315
305 302 299 300 302 307 303 297 298 298 289 282 271 265 264 258 252 251 253 249 234 241 253 247 198 185 192 243 223 272 276 290 287 279 300 310 317 294
310 309 317 316 314 313 302 304 312 296 282 273 268 267 257 251 254 254 247 249 248 250 257 228 197 189 188 210 209 218 283 283 245 272 284 303 300 318
309 310 315 318 315 314 318 313 308 296 286 267 270 271 250 247 249 246 250 238 236 273 261 249 241 173 212 226 196 209 205 236 254 272 277 276 272 287
329 321 314 314 312 313 315 312 314 311 312 286 263 268 262 259 256 248 241 222 202 212 295 293 246 221 213 175 226 200 221 240 231 248 256 265 264 258
340 321 319 321 320 321 321 319 317 317 314 315 302 280 273 261 263 262 238 206 233 246 253 257 255 227 207 251 211 250 227 236 232 238 235 287 289 278
325 319 319 319 321 320 319 317 314 309 303 300 302 298 282 268 279 264 239 232 235 235 225 198 211 219 226 254 258 211 218 207 215 241 235 250 270 282
330 326 324 324 322 320 316 314 312 307 299 292 290 291 281 275 255 245 249 249 245 233 236 213 213 204 221 242 222 240 201 186 176 242 261 235 234 257
328 326 325 325 324 324 322 315 307 303 307 299 290 284 279 278 266 241 237 256 246 235 241 239 230 223 223 84 275 265 259 226 206 223 213 219 218 278
333 326 325 323 318 317 320 320 317 314 304 303 288 279 280 278 280 254 241 236 239 242 255 268 239 199 205 224 238 248 255 244 242 246 241 221 197 235
330 324 326 324 320 321 315 322 319 317 306 305 302 289 272 270 278 271 240 226 223 223 243 260 220 226 233 203 232 239 254 254 236 261 256 217 236 263